Regional Weather Roundup
Issued by NWS

Home | Current Version | Previous Version | Graphics & Text | Print | Product List | Glossary On
Versions: 1 2 3 4 5 6 7 8 9 10 11 12 13 14 15 16 17 18 19 20 21 22 23 24 25 26 27 28 29 30 31 32 33 34 35 36 37 38 39 40 41 42 43 44 45 46 47 48 49 50
000
ASUS45 KCYS 201510
RWRWY

WYOMING REGIONAL WEATHER ROUNDUP
NATIONAL WEATHER SERVICE CHEYENNE WY
800 AM MST TUE FEB 20 2018

NOTE:  "FAIR" INDICATES FEW OR NO CLOUDS BELOW 12,000 FEET
WITH NO SIGNIFICANT WEATHER AND/OR OBSTRUCTIONS TO VISIBILITY.

WYZ001-201600-
YELLOWSTONE NATIONAL PARK

CITY           SKY/WX    TMP DP  RH WIND       PRES   REMARKS
LK YELLOWSTONE   N/A    -30 N/A N/A CALM      29.75R
W YELLOWSTONE  NOT AVBL

$$
WYZ002>013-054>058-071-098>099-201600-
NORTHERN WYOMING

CITY           SKY/WX    TMP DP  RH WIND       PRES   REMARKS
JACKSON        MOCLDY    -4 -10  75 N8        29.83R WCI -19
CODY           FAIR     -15 -19  82 CALM      29.93R
GREYBULL       FAIR     -25 -27  90 CALM      30.07R
WORLAND        FAIR     -16 -19  87 S6        30.03R WCI -31
SHERIDAN       FAIR     -17 -21  82 SW5       30.00R WCI -30
BUFFALO        FAIR     -10 -17  71 S6        29.91R WCI -23
GILLETTE       FAIR     -10 -16  74 W8        29.97R WCI -26
HULETT         FAIR      -9 -15  77 MISG      29.99R
NEWCASTLE      FAIR     -11 -18  70 N10       30.00R WCI -30

$$
WYZ014>020-022>026-101>103-201600-
CENTRAL WYOMING

CITY           SKY/WX    TMP DP  RH WIND       PRES   REMARKS
BIG PINEY      CLOUDY    -8 -12  83 CALM      29.82R FOG
PINEDALE       CLOUDY   -18 -26  69 CALM      29.82R HAZE
DUBOIS           N/A    N/A N/A N/A MISG        N/A
LANDER         FAIR     -12 -16  82 CALM      29.88R
RIVERTON       FAIR     -14 -21  71 CALM      29.89R
CASPER         FAIR     -13 -18  78 W16       29.89R WCI -37
DOUGLAS        PTSUNNY  -16 -21  78 CALM      29.93S HAZE

$$
WYZ021-027>030-104>119-201600-
SOUTHERN WYOMING

CITY           SKY/WX    TMP DP  RH WIND       PRES   REMARKS
EVANSTON       FAIR       1  -3  83 SW8       29.81R WCI -13
FORT BRIDGER   FAIR       0  -4  85 W7        29.84  WCI -13
ROCK SPRINGS   FAIR      -6 -11  79 CALM      29.83R
DIXON          CLOUDY    -7 -13  75 SE8       29.91R WCI -23
RAWLINS        FAIR      -9 -13  83 CALM      29.82R
SARATOGA       CLOUDY    -8 -15  71 CALM      29.81R
LARAMIE        FAIR     -21 -23  90 W8        29.74R WCI -40
CHEYENNE       FAIR      -6 -11  79 W3        29.81R
TORRINGTON     FAIR      -6 -10  83 CALM      30.01R
PINE BLUFFS    FAIR     -17 -22  76 MISG      29.92R

$$



USA.gov is the U.S. government's official web portal to all federal, state and local government web resources and services.